• In Czech Republic
  • List of Countries
  • For 7 days
  • Water Temperature
  • Satellite Maps
  • Weather Map
  • Weather Widgets
  • user-avatar
    Login

    Hourly Weather Nasaud

    Today, 19 September, Wednesday

    Time Temperature Precipitation Wind Pressure Humidity
    00:00 +15°C° 0 mm 1 mps 737 mmHg 69%
    01:00 +15°C° 0 mm 1 mps 737 mmHg 70%
    02:00 +15°C° 0 mm 1 mps 737 mmHg 71%
    03:00 +14°C° 0 mm 1 mps 737 mmHg 73%
    04:00 +14°C° 0 mm 1 mps 737 mmHg 74%
    05:00 +14°C° 0 mm 1 mps 737 mmHg 75%
    06:00 +15°C° 0 mm 1 mps 737 mmHg 71%
    07:00 +18°C° 0 mm 1 mps 738 mmHg 66%
    08:00 +19°C° 0 mm 1 mps 738 mmHg 62%
    09:00 +22°C° 0 mm 1 mps 738 mmHg 55%
    10:00 +24°C° 0 mm 1 mps 738 mmHg 49%
    11:00 +26°C° 0 mm 1 mps 738 mmHg 42%
    12:00 +27°C° 0 mm 1 mps 738 mmHg 40%
    13:00 +28°C° 0 mm 1 mps 737 mmHg 38%
    14:00 +29°C° 0 mm 1 mps 737 mmHg 35%
    15:00 +28°C° 0 mm 1 mps 737 mmHg 38%
    16:00 +28°C° 0 mm 1 mps 737 mmHg 41%
    17:00 +27°C° 0 mm 1 mps 736 mmHg 43%
    18:00 +25°C° 0 mm 1 mps 736 mmHg 50%
    19:00 +22°C° 0 mm 1 mps 737 mmHg 56%
    20:00 +19°C° 0 mm 1 mps 737 mmHg 63%
    21:00 +19°C° 0 mm 1 mps 737 mmHg 65%
    22:00 +18°C° 0 mm 1 mps 737 mmHg 67%
    23:00 +18°C° 0 mm 1 mps 737 mmHg 68%

    Tomorrow, 20 September, Thursday

    Time Temperature Precipitation Wind Pressure Humidity
    00:00 +18°C° 0 mm 1 mps 737 mmHg 70%
    01:00 +16°C° 0 mm 1 mps 737 mmHg 71%
    02:00 +16°C° 0 mm 1 mps 737 mmHg 72%
    03:00 +16°C° 0 mm 1 mps 737 mmHg 73%
    04:00 +15°C° 0 mm 1 mps 737 mmHg 73%
    05:00 +15°C° 0 mm 1 mps 737 mmHg 74%
    06:00 +16°C° 0 mm 1 mps 737 mmHg 70%
    07:00 +17°C° 0 mm 0 mps 737 mmHg 65%
    08:00 +18°C° 0 mm 0 mps 737 mmHg 60%
    09:00 +23°C° 0 mm 1 mps 737 mmHg 54%
    10:00 +25°C° 0 mm 1 mps 737 mmHg 47%
    11:00 +27°C° 0 mm 1 mps 737 mmHg 40%
    12:00 +28°C° 0 mm 1 mps 737 mmHg 38%
    13:00 +29°C° 0 mm 1 mps 737 mmHg 36%
    14:00 +29°C° 0 mm 1 mps 736 mmHg 34%
    15:00 +29°C° 0 mm 1 mps 736 mmHg 37%
    16:00 +28°C° 0 mm 1 mps 736 mmHg 40%
    17:00 +27°C° 0 mm 1 mps 736 mmHg 44%
    18:00 +25°C° 0 mm 1 mps 736 mmHg 50%
    19:00 +22°C° 0 mm 1 mps 736 mmHg 57%
    20:00 +20°C° 0 mm 1 mps 736 mmHg 63%
    21:00 +19°C° 0 mm 1 mps 736 mmHg 65%
    22:00 +19°C° 0 mm 1 mps 736 mmHg 67%
    23:00 +18°C° 0 mm 1 mps 736 mmHg 69%

    Day after tomorrow, 21 September, Friday

    Time Temperature Precipitation Wind Pressure Humidity
    00:00 +18°C° 0 mm 1 mps 736 mmHg 70%
    01:00 +16°C° 0 mm 1 mps 736 mmHg 71%
    02:00 +16°C° 0 mm 1 mps 736 mmHg 72%
    03:00 +16°C° 0 mm 1 mps 736 mmHg 73%
    04:00 +16°C° 0 mm 1 mps 736 mmHg 74%
    05:00 +15°C° 0 mm 1 mps 736 mmHg 74%
    06:00 +18°C° 0 mm 1 mps 736 mmHg 70%
    07:00 +19°C° 0 mm 1 mps 736 mmHg 65%
    08:00 +21°C° 0 mm 1 mps 736 mmHg 61%
    09:00 +23°C° 0 mm 1 mps 736 mmHg 54%
    10:00 +25°C° 0 mm 1 mps 736 mmHg 48%
    11:00 +27°C° 0 mm 2 mps 736 mmHg 41%
    12:00 +28°C° 0 mm 2 mps 736 mmHg 39%
    13:00 +28°C° 0 mm 2 mps 736 mmHg 37%
    14:00 +29°C° 0 mm 2 mps 735 mmHg 35%
    15:00 +28°C° 0 mm 2 mps 735 mmHg 38%
    16:00 +28°C° 0 mm 1 mps 735 mmHg 40%
    17:00 +27°C° 0 mm 1 mps 734 mmHg 42%
    18:00 +25°C° 0 mm 1 mps 734 mmHg 47%
    19:00 +23°C° 0 mm 1 mps 734 mmHg 52%
    20:00 +20°C° 0 mm 1 mps 734 mmHg 56%
    21:00 +20°C° 0 mm 1 mps 734 mmHg 58%
    22:00 +19°C° 0 mm 1 mps 735 mmHg 59%
    23:00 +18°C° 0 mm 1 mps 735 mmHg 60%

    22 September, Saturday

    Time Temperature Precipitation Wind Pressure Humidity
    00:00 +18°C° 0 mm 1 mps 734 mmHg 61%
    01:00 +18°C° 0 mm 1 mps 734 mmHg 62%
    02:00 +16°C° 0 mm 1 mps 734 mmHg 63%
    03:00 +16°C° 0 mm 1 mps 734 mmHg 64%
    04:00 +15°C° 0 mm 1 mps 734 mmHg 65%
    05:00 +15°C° 0 mm 1 mps 734 mmHg 66%
    06:00 +16°C° 0 mm 1 mps 734 mmHg 62%
    07:00 +19°C° 0 mm 1 mps 734 mmHg 59%
    08:00 +20°C° 0 mm 1 mps 734 mmHg 56%
    09:00 +22°C° 0 mm 1 mps 734 mmHg 49%
    10:00 +24°C° 0 mm 2 mps 734 mmHg 43%
    11:00 +27°C° 0 mm 2 mps 734 mmHg 37%
    12:00 +27°C° 0 mm 2 mps 734 mmHg 35%
    13:00 +28°C° 0 mm 2 mps 734 mmHg 33%
    14:00 +29°C° 0 mm 2 mps 733 mmHg 31%
    15:00 +28°C° 0 mm 2 mps 733 mmHg 33%
    16:00 +28°C° 0 mm 1 mps 733 mmHg 36%
    17:00 +27°C° 0 mm 1 mps 732 mmHg 39%
    18:00 +25°C° 0 mm 1 mps 733 mmHg 42%
    19:00 +23°C° 0 mm 1 mps 733 mmHg 46%
    20:00 +21°C° 0 mm 1 mps 733 mmHg 49%
    21:00 +20°C° 0 mm 1 mps 733 mmHg 51%
    22:00 +20°C° 0 mm 1 mps 733 mmHg 53%
    23:00 +19°C° 0 mm 1 mps 733 mmHg 55%

    23 September, Sunday

    Time Temperature Precipitation Wind Pressure Humidity
    00:00 +17°C° 0.8 mm 2 mps 733 mmHg 64%
    01:00 +17°C° 0.8 mm 2 mps 734 mmHg 72%
    02:00 +16°C° 0.8 mm 3 mps 734 mmHg 81%
    03:00 +14°C° 2.2 mm 3 mps 734 mmHg 85%
    04:00 +13°C° 2.2 mm 3 mps 735 mmHg 90%
    05:00 +12°C° 2.2 mm 3 mps 735 mmHg 94%
    06:00 +12°C° 0.1 mm 3 mps 736 mmHg 93%
    07:00 +11°C° 0.1 mm 3 mps 736 mmHg 91%
    08:00 +11°C° 0.1 mm 3 mps 737 mmHg 90%
    09:00 +12°C° 0 mm 3 mps 737 mmHg 86%
    10:00 +12°C° 0 mm 3 mps 737 mmHg 81%
    11:00 +13°C° 0 mm 3 mps 737 mmHg 76%
    12:00 +15°C° 0 mm 2 mps 737 mmHg 68%
    13:00 +17°C° 0 mm 2 mps 737 mmHg 60%
    14:00 +18°C° 0 mm 2 mps 737 mmHg 52%
    15:00 +19°C° 0 mm 1 mps 736 mmHg 51%
    16:00 +19°C° 0 mm 1 mps 736 mmHg 50%
    17:00 +18°C° 0 mm 1 mps 736 mmHg 49%
    18:00 +16°C° 0 mm 1 mps 736 mmHg 56%
    19:00 +14°C° 0 mm 1 mps 736 mmHg 62%
    20:00 +11°C° 0 mm 0 mps 736 mmHg 69%
    21:00 +11°C° 0 mm 1 mps 735 mmHg 71%
    22:00 +11°C° 0 mm 1 mps 735 mmHg 73%
    23:00 +11°C° 0 mm 1 mps 735 mmHg 75%

    24 September, Monday

    Time Temperature Precipitation Wind Pressure Humidity
    00:00 +10°C° 0 mm 1 mps 735 mmHg 77%
    01:00 +10°C° 0 mm 1 mps 734 mmHg 79%
    02:00 +9°C° 0 mm 2 mps 734 mmHg 82%
    03:00 +9°C° 0 mm 2 mps 733 mmHg 80%
    04:00 +9°C° 0 mm 2 mps 733 mmHg 78%
    05:00 +9°C° 0 mm 2 mps 732 mmHg 76%
    06:00 +12°C° 0 mm 2 mps 732 mmHg 71%
    07:00 +13°C° 0 mm 2 mps 732 mmHg 65%
    08:00 +15°C° 0 mm 2 mps 731 mmHg 59%
    09:00 +17°C° 0 mm 2 mps 731 mmHg 55%
    10:00 +19°C° 0 mm 3 mps 731 mmHg 51%
    11:00 +22°C° 0 mm 3 mps 730 mmHg 48%
    12:00 +24°C° 0 mm 3 mps 730 mmHg 47%
    13:00 +25°C° 0 mm 3 mps 729 mmHg 46%
    14:00 +26°C° 0 mm 3 mps 728 mmHg 46%
    15:00 +26°C° 0 mm 3 mps 728 mmHg 47%
    16:00 +26°C° 0 mm 3 mps 727 mmHg 49%
    17:00 +26°C° 0 mm 2 mps 727 mmHg 51%
    18:00 +24°C° 0 mm 2 mps 727 mmHg 56%
    19:00 +21°C° 0 mm 2 mps 726 mmHg 62%
    20:00 +19°C° 0 mm 2 mps 726 mmHg 67%
    21:00 +18°C° 0 mm 2 mps 726 mmHg 70%
    22:00 +17°C° 0 mm 2 mps 727 mmHg 72%
    23:00 +16°C° 0 mm 2 mps 727 mmHg 74%
    Show more